A SL-12 Rocket Body that was launched on the 30th March, 2012, from the Tyuratam launch complex for the Kosmos-2479 satellite mission re-entered the Earths atmosphere on the 1st April, 2012 @ 13:33 GMT ± 1 minute.
SL-12 RB 1 38102U 12012B 12092.43263819 .10845346 12705-4 12651-3 0 168 2 38102 051.6639 272.5494 0001984 320.4529 039.8861 16.49989309 368
Inclination: 51.66°Revolution Number: 37Predicted Location: 47°N, 295°E